Location: Leeds
(37.2390°N, 113.3580°W)
Time: 20:31:29
(UTC-06:00)

ISS - All Passes

Search period start: 24 July 2016 00:00
Search period end: 03 August 2016 00:00
Orbit: 401 x 404 km, 51.6° (Epoch: 24 July)

Date Brightness Start Highest point End Pass type
(mag) Time Alt. Az. Time Alt. Az. Time Alt. Az.
24 Jul - 01:17:26 10° NW 01:18:38 12° NNW 01:19:52 10° N visible
24 Jul - 04:32:38 10° N 04:34:06 12° NNE 04:35:34 10° NE visible
24 Jul - 06:07:48 10° NW 06:11:02 66° NE 06:14:16 10° ESE daylight
24 Jul - 07:46:36 10° WSW 07:47:02 10° SW 07:47:30 10° SW daylight
24 Jul - 22:45:30 10° SW 22:48:44 66° SE 22:51:58 10° NE visible
25 Jul - 00:23:15 10° WNW 00:25:26 17° NNW 00:27:39 10° NNE visible
25 Jul - 05:15:03 10° NNW 05:18:03 33° NE 05:21:03 10° E visible
25 Jul - 06:51:48 10° W 06:54:20 21° SW 06:56:52 10° S daylight
25 Jul - 21:53:01 10° SSW 21:55:54 30° SE 21:58:47 10° ENE visible
25 Jul - 23:29:31 10° W 23:32:19 26° NNW 23:35:08 10° NNE visible
26 Jul - 04:22:28 10° NNW 04:24:59 20° NNE 04:27:29 10° E visible
26 Jul - 05:58:26 10° WNW 06:01:34 44° SW 06:04:40 10° SSE visible
26 Jul - 21:01:16 10° SSE 21:03:09 15° SE 21:05:03 10° E daylight
26 Jul - 22:36:08 10° WSW 22:39:18 46° NW 22:42:27 10° NE visible
27 Jul - 00:15:36 10° NNW 00:16:23 11° NNW 00:17:09 10° N visible
27 Jul - 03:30:03 10° N 03:31:49 14° NNE 03:33:34 10° NE visible
27 Jul - 05:05:25 10° NW 05:08:41 82° NE 05:11:56 10° SE visible
27 Jul - 21:43:06 10° SW 21:46:20 83° SE 21:49:36 10° NE visible
27 Jul - 23:21:10 10° WNW 23:23:08 15° NNW 23:25:07 10° NNE visible
28 Jul - 04:12:36 10° NW 04:15:43 40° NE 04:18:48 10° ESE visible
28 Jul - 05:49:40 10° W 05:51:55 17° SW 05:54:09 10° S visible
28 Jul - 20:50:28 10° SSW 20:53:29 37° SE 20:56:31 10° ENE daylight
28 Jul - 22:27:20 10° W 22:29:59 23° NNW 22:32:39 10° NNE visible
29 Jul - 03:19:58 10° NNW 03:22:39 23° NNE 03:25:20 10° E night (unlit)
29 Jul - 04:56:07 10° WNW 04:59:09 36° SW 05:02:09 10° SSE visible
29 Jul - 19:58:26 10° S 20:00:43 18° SE 20:02:59 10° E daylight
29 Jul - 21:33:51 10° WSW 21:36:55 39° NW 21:40:01 10° NE visible
30 Jul - 02:27:29 10° NNW 02:29:30 15° NNE 02:31:30 10° ENE night (unlit)
30 Jul - 04:03:02 10° NW 04:06:17 81° SW 04:09:32 10° SE night (unlit)
30 Jul - 20:40:42 10° SW 20:43:56 80° NW 20:47:12 10° NE daylight
30 Jul - 22:19:06 10° NW 22:20:49 13° NNW 22:22:33 10° N visible
31 Jul - 01:35:25 10° N 01:36:16 11° NNE 01:37:06 10° NNE visible
31 Jul - 03:10:10 10° NW 03:13:20 48° NE 03:16:30 10° ESE night (unlit)
31 Jul - 04:47:38 10° W 04:49:27 14° SW 04:51:17 10° SSW night (unlit)
31 Jul - 19:47:55 10° SSW 19:51:03 46° SE 19:54:11 10° ENE daylight
31 Jul - 21:25:08 10° WNW 21:27:38 20° NNW 21:30:08 10° NNE visible
01 Aug - 02:17:28 10° NNW 02:20:18 26° NNE 02:23:06 10° E night (unlit)
01 Aug - 03:53:50 10° WNW 03:56:42 29° SW 03:59:33 10° SSE night (unlit)
01 Aug - 18:55:41 10° S 18:58:15 22° SE 19:00:49 10° ENE daylight
01 Aug - 20:31:33 10° W 20:34:32 33° NNW 20:37:32 10° NNE daylight
02 Aug - 01:24:55 10° NNW 01:27:09 17° NNE 01:29:22 10° ENE visible
02 Aug - 03:00:38 10° NW 03:03:51 64° SW 03:07:04 10° SE night (unlit)
02 Aug - 18:04:50 10° SE 18:05:31 10° SE 18:06:12 10° ESE daylight
02 Aug - 19:38:17 10° WSW 19:41:31 65° NW 19:44:46 10° NE daylight
02 Aug - 21:17:03 10° NW 21:18:29 12° NNW 21:19:54 10° N visible
